timestamp,wind_dir_avg,wind_spd_avg,wind_spd_max_dir,wind_spd_gust,battery_voltage,lat,long
2023-06-03 00:04:01+00:00,19.0,5.86,16.0,6.59,12.57,47.59359,-54.27349
2023-06-03 00:14:01+00:00,20.0,6.26,17.0,7.03,12.41,47.59359,-54.27349
2023-06-03 00:24:01+00:00,27.0,6.79,32.0,7.51,12.41,47.59359,-54.27349
2023-06-03 00:34:01+00:00,16.0,6.34,16.0,6.7,12.41,47.59359,-54.27349
2023-06-03 00:44:01+00:00,19.0,7.0,19.0,8.06,12.41,47.59359,-54.27349
2023-06-03 00:54:01+00:00,11.0,6.49,10.0,7.68,12.41,47.59359,-54.27349
2023-06-03 01:04:01+00:00,13.0,6.59,13.0,7.42,12.41,47.59359,-54.27349
2023-06-03 01:14:00+00:00,23.0,7.91,20.0,8.66,12.33,47.59359,-54.27349
2023-06-03 01:24:00+00:00,23.0,7.42,25.0,8.27,12.33,47.59359,-54.27349
2023-06-03 01:34:00+00:00,17.0,6.38,26.0,7.41,12.33,47.59359,-54.27349
2023-06-03 01:44:00+00:00,18.0,6.57,33.0,7.98,12.33,47.59359,-54.27349
2023-06-03 01:54:00+00:00,27.0,7.61,31.0,8.49,12.33,47.59359,-54.27349
2023-06-03 02:04:00+00:00,28.0,6.79,29.0,7.66,12.33,47.59359,-54.27349
2023-06-03 02:14:01+00:00,30.0,6.34,27.0,7.25,12.33,47.59359,-54.27349
2023-06-03 02:24:01+00:00,40.0,6.09,49.0,7.18,12.33,47.59359,-54.27349
2023-06-03 02:34:01+00:00,31.0,6.11,29.0,6.64,12.33,47.59359,-54.27349
2023-06-03 02:44:01+00:00,35.0,5.86,49.0,7.14,12.33,47.59359,-54.27349
2023-06-03 02:54:01+00:00,30.0,6.5,31.0,7.19,12.33,47.59359,-54.27349
2023-06-03 03:04:01+00:00,30.0,7.65,28.0,8.45,12.33,47.59359,-54.27349
2023-06-03 03:14:01+00:00,28.0,7.87,33.0,8.8,12.33,47.59359,-54.27349
2023-06-03 03:24:01+00:00,29.0,6.76,37.0,7.61,12.33,47.59359,-54.27349
2023-06-03 03:34:01+00:00,35.0,6.77,39.0,7.75,12.33,47.59359,-54.27349
2023-06-03 03:44:01+00:00,29.0,6.98,29.0,7.85,12.33,47.59359,-54.27349
2023-06-03 03:54:01+00:00,28.0,7.5,30.0,8.3,12.33,47.59359,-54.27349
2023-06-03 04:04:01+00:00,38.0,6.84,44.0,7.99,12.33,47.59359,-54.27349
2023-06-03 04:14:00+00:00,35.0,7.3,41.0,8.05,12.25,47.59359,-54.27349
2023-06-03 04:24:00+00:00,28.0,7.25,33.0,8.33,12.25,47.59359,-54.27349
2023-06-03 04:34:00+00:00,32.0,6.94,41.0,7.8,12.25,47.59359,-54.27349
2023-06-03 04:44:00+00:00,37.0,7.03,37.0,7.63,12.25,47.59359,-54.27349
2023-06-03 04:54:00+00:00,30.0,7.03,32.0,7.85,12.25,47.59359,-54.27349
2023-06-03 05:04:00+00:00,33.0,6.68,38.0,7.79,12.25,47.59359,-54.27349
2023-06-03 05:14:00+00:00,25.0,5.8,35.0,8.34,12.25,47.59359,-54.27349
2023-06-03 05:24:00+00:00,30.0,6.64,44.0,7.13,12.25,47.59359,-54.27349
2023-06-03 05:34:00+00:00,31.0,6.5,36.0,7.44,12.25,47.59359,-54.27349
2023-06-03 05:44:00+00:00,33.0,7.58,34.0,8.63,12.25,47.59359,-54.27349
2023-06-03 05:54:00+00:00,39.0,7.83,43.0,8.38,12.25,47.59359,-54.27349
2023-06-03 06:04:00+00:00,37.0,6.95,35.0,8.06,12.25,47.59359,-54.27349
2023-06-03 06:14:00+00:00,29.0,7.56,32.0,8.21,12.25,47.59359,-54.27349
2023-06-03 06:24:00+00:00,32.0,6.75,35.0,7.48,12.25,47.59359,-54.27349
2023-06-03 06:34:00+00:00,34.0,6.37,43.0,7.43,12.25,47.59359,-54.27349
2023-06-03 06:44:00+00:00,31.0,7.71,35.0,8.25,12.25,47.59359,-54.27349
2023-06-03 06:54:00+00:00,31.0,5.42,47.0,7.21,12.25,47.59359,-54.27349
2023-06-03 07:04:00+00:00,38.0,6.22,34.0,7.25,12.25,47.59359,-54.27349
2023-06-03 07:14:00+00:00,37.0,5.98,35.0,6.88,12.17,47.59359,-54.27349
2023-06-03 07:24:00+00:00,34.0,6.79,35.0,7.67,12.17,47.59359,-54.27349
2023-06-03 07:34:00+00:00,33.0,6.11,42.0,7.18,12.17,47.59359,-54.27349
2023-06-03 07:44:00+00:00,25.0,6.96,24.0,7.81,12.17,47.59359,-54.27349
2023-06-03 07:54:00+00:00,28.0,6.98,23.0,7.88,12.17,47.59359,-54.27349
2023-06-03 08:04:00+00:00,27.0,6.51,32.0,7.16,12.17,47.59359,-54.27349
2023-06-03 08:14:00+00:00,30.0,5.93,30.0,6.4,12.17,47.59359,-54.27349
2023-06-03 08:24:00+00:00,30.0,6.22,31.0,7.03,12.17,47.59359,-54.27349
2023-06-03 08:34:00+00:00,32.0,5.83,43.0,6.64,12.17,47.59359,-54.27349
2023-06-03 08:44:00+00:00,25.0,6.92,24.0,7.8,12.17,47.59359,-54.27349
2023-06-03 08:54:00+00:00,32.0,6.52,37.0,7.44,12.17,47.59359,-54.27349
2023-06-03 09:04:00+00:00,33.0,6.66,32.0,7.24,12.17,47.59359,-54.27349
2023-06-03 09:14:00+00:00,40.0,5.69,49.0,6.28,12.33,47.59359,-54.27349
2023-06-03 09:24:00+00:00,34.0,5.96,45.0,6.73,12.33,47.59359,-54.27349
2023-06-03 09:34:00+00:00,36.0,5.89,35.0,7.16,12.33,47.59359,-54.27349
2023-06-03 09:44:00+00:00,33.0,5.91,46.0,6.45,12.33,47.59359,-54.27349
2023-06-03 09:54:00+00:00,34.0,6.15,36.0,6.81,12.33,47.59359,-54.27349
2023-06-03 10:04:00+00:00,37.0,5.74,37.0,6.51,12.33,47.59359,-54.27349
2023-06-03 10:14:01+00:00,50.0,4.57,51.0,5.04,12.41,47.59359,-54.27349
2023-06-03 10:24:01+00:00,51.0,5.14,51.0,5.78,12.41,47.59359,-54.27349
2023-06-03 10:34:01+00:00,51.0,5.32,59.0,6.64,12.41,47.59359,-54.27349
2023-06-03 10:44:01+00:00,40.0,5.8,49.0,6.58,12.41,47.59359,-54.27349
2023-06-03 10:54:01+00:00,33.0,6.17,42.0,6.85,12.41,47.59359,-54.27349
2023-06-03 11:04:01+00:00,29.0,6.56,34.0,7.43,12.41,47.59359,-54.27349
2023-06-03 11:14:00+00:00,31.0,7.08,33.0,7.79,13.05,47.59359,-54.27349
2023-06-03 11:24:00+00:00,30.0,7.05,33.0,7.8,13.05,47.59359,-54.27349
2023-06-03 11:34:00+00:00,31.0,6.21,33.0,7.01,13.05,47.59359,-54.27349
2023-06-03 11:44:00+00:00,29.0,6.78,29.0,7.14,13.05,47.59359,-54.27349
2023-06-03 11:54:00+00:00,33.0,6.09,34.0,6.63,13.05,47.59359,-54.27349
2023-06-03 12:04:00+00:00,40.0,6.02,35.0,6.88,13.05,47.59359,-54.27349
2023-06-03 12:14:00+00:00,53.0,6.04,54.0,6.71,13.53,47.59359,-54.27349
2023-06-03 12:24:00+00:00,40.0,8.5,44.0,9.5,13.53,47.59359,-54.27349
2023-06-03 12:34:00+00:00,40.0,8.83,39.0,10.19,13.53,47.59359,-54.27349
2023-06-03 12:44:00+00:00,42.0,7.2,48.0,8.19,13.53,47.59359,-54.27349
2023-06-03 12:54:00+00:00,32.0,9.02,37.0,9.83,13.53,47.59359,-54.27349
2023-06-03 13:04:00+00:00,40.0,7.91,46.0,8.92,13.53,47.59359,-54.27349
2023-06-03 13:14:00+00:00,40.0,6.33,44.0,7.57,13.6,47.59359,-54.27349
2023-06-03 13:24:00+00:00,31.0,7.89,30.0,8.68,13.6,47.59359,-54.27349
2023-06-03 13:34:00+00:00,31.0,7.96,32.0,9.04,13.6,47.59359,-54.27349
2023-06-03 13:44:00+00:00,26.0,7.69,30.0,8.7,13.6,47.59359,-54.27349
2023-06-03 13:54:00+00:00,20.0,10.01,20.0,10.91,13.6,47.59359,-54.27349
2023-06-03 14:04:00+00:00,20.0,9.68,24.0,10.98,13.6,47.59359,-54.27349
2023-06-03 14:14:00+00:00,24.0,9.12,21.0,10.07,13.6,47.59359,-54.27349
2023-06-03 14:24:00+00:00,22.0,8.31,16.0,9.21,13.6,47.59359,-54.27349
2023-06-03 14:34:00+00:00,28.0,7.14,31.0,7.9,13.6,47.59359,-54.27349
2023-06-03 14:44:00+00:00,30.0,8.57,32.0,9.55,13.6,47.59359,-54.27349
2023-06-03 14:54:00+00:00,30.0,9.52,31.0,10.17,13.6,47.59359,-54.27349
2023-06-03 15:04:00+00:00,31.0,8.54,32.0,9.35,13.6,47.59359,-54.27349
2023-06-03 15:14:00+00:00,44.0,8.08,40.0,8.83,13.53,47.59359,-54.27349
2023-06-03 15:24:00+00:00,42.0,8.37,46.0,9.2,13.53,47.59359,-54.27349
2023-06-03 15:34:00+00:00,47.0,7.66,46.0,8.63,13.53,47.59359,-54.27349
2023-06-03 15:44:00+00:00,52.0,7.55,51.0,8.13,13.53,47.59359,-54.27349
2023-06-03 15:54:00+00:00,54.0,6.19,56.0,6.97,13.53,47.59359,-54.27349
2023-06-03 16:04:00+00:00,55.0,7.4,55.0,8.11,13.53,47.59359,-54.27349
2023-06-03 16:14:00+00:00,59.0,7.42,57.0,8.47,13.68,47.59359,-54.27349
2023-06-03 16:24:00+00:00,55.0,7.95,53.0,8.6,13.68,47.59359,-54.27349
2023-06-03 16:34:00+00:00,49.0,7.94,50.0,9.03,13.68,47.59359,-54.27349
2023-06-03 16:44:00+00:00,43.0,7.98,42.0,8.68,13.68,47.59359,-54.27349
2023-06-03 16:54:00+00:00,38.0,7.71,41.0,8.64,13.68,47.59359,-54.27349
2023-06-03 17:04:00+00:00,40.0,7.48,36.0,8.54,13.68,47.59359,-54.27349
2023-06-03 17:14:00+00:00,36.0,8.87,36.0,9.49,13.53,47.59359,-54.27349
2023-06-03 17:24:00+00:00,34.0,9.5,34.0,10.59,13.53,47.59359,-54.27349
2023-06-03 17:34:00+00:00,38.0,8.4,34.0,9.13,13.53,47.59359,-54.27349
2023-06-03 17:44:00+00:00,40.0,8.09,40.0,9.08,13.53,47.59359,-54.27349
2023-06-03 17:54:00+00:00,42.0,8.18,42.0,9.27,13.53,47.59359,-54.27349
2023-06-03 18:04:00+00:00,39.0,8.58,34.0,9.63,13.53,47.59359,-54.27349
2023-06-03 18:14:00+00:00,34.0,8.11,33.0,8.91,13.68,47.59359,-54.27349
2023-06-03 18:24:00+00:00,28.0,7.24,30.0,8.48,13.68,47.59359,-54.27349
2023-06-03 18:34:00+00:00,41.0,7.22,50.0,8.16,13.68,47.59359,-54.27349
2023-06-03 18:44:00+00:00,44.0,7.77,45.0,9.98,13.68,47.59359,-54.27349
2023-06-03 18:54:00+00:00,42.0,7.16,37.0,8.21,13.68,47.59359,-54.27349
2023-06-03 19:04:00+00:00,27.0,8.87,40.0,10.29,13.68,47.59359,-54.27349
2023-06-03 19:14:00+00:00,30.0,7.54,39.0,9.1,13.68,47.59359,-54.27349
2023-06-03 19:24:00+00:00,32.0,7.11,45.0,9.46,13.68,47.59359,-54.27349
2023-06-03 19:34:00+00:00,37.0,7.6,49.0,9.0,13.68,47.59359,-54.27349
2023-06-03 19:44:00+00:00,36.0,9.78,36.0,12.18,13.68,47.59359,-54.27349
2023-06-03 19:54:00+00:00,36.0,10.97,41.0,13.18,13.68,47.59359,-54.27349
2023-06-03 20:04:00+00:00,26.0,10.06,35.0,12.62,13.68,47.59359,-54.27349
2023-06-03 20:14:00+00:00,35.0,9.49,39.0,11.11,13.44,47.59359,-54.27349
2023-06-03 20:24:00+00:00,33.0,8.51,40.0,9.94,13.44,47.59359,-54.27349
2023-06-03 20:34:00+00:00,31.0,8.99,37.0,10.35,13.44,47.59359,-54.27349
2023-06-03 20:44:00+00:00,29.0,9.03,37.0,10.33,13.44,47.59359,-54.27349
2023-06-03 20:54:00+00:00,28.0,9.43,38.0,10.85,13.44,47.59359,-54.27349
2023-06-03 21:04:00+00:00,26.0,9.89,35.0,11.29,13.44,47.59359,-54.27349
2023-06-03 21:14:00+00:00,29.0,9.44,35.0,10.9,13.13,47.59359,-54.27349
2023-06-03 21:24:00+00:00,28.0,9.33,29.0,10.27,13.13,47.59359,-54.27349
2023-06-03 21:34:00+00:00,34.0,8.4,37.0,10.92,13.13,47.59359,-54.27349
2023-06-03 21:44:00+00:00,33.0,8.94,38.0,10.73,13.13,47.59359,-54.27349
2023-06-03 21:54:00+00:00,29.0,9.36,31.0,10.43,13.13,47.59359,-54.27349
2023-06-03 22:04:00+00:00,30.0,9.47,31.0,10.55,13.13,47.59359,-54.27349
2023-06-03 22:14:00+00:00,33.0,9.79,36.0,11.46,12.65,47.59359,-54.27349
2023-06-03 22:24:00+00:00,26.0,9.24,20.0,11.11,12.65,47.59359,-54.27349
2023-06-03 22:34:00+00:00,32.0,9.77,36.0,11.07,12.65,47.59359,-54.27349
2023-06-03 22:44:00+00:00,30.0,9.8,36.0,11.14,12.65,47.59359,-54.27349
2023-06-03 22:54:00+00:00,31.0,10.7,34.0,12.53,12.65,47.59359,-54.27349
2023-06-03 23:04:00+00:00,32.0,10.27,28.0,11.33,12.65,47.59359,-54.27349
2023-06-03 23:14:01+00:00,30.0,9.66,29.0,11.15,12.41,47.59359,-54.27349
2023-06-03 23:24:01+00:00,34.0,10.15,37.0,11.44,12.41,47.59359,-54.27349
2023-06-03 23:34:01+00:00,34.0,10.7,33.0,12.04,12.41,47.59359,-54.27349
2023-06-03 23:44:01+00:00,38.0,9.63,38.0,10.52,12.41,47.59359,-54.27349
2023-06-03 23:54:01+00:00,39.0,10.1,38.0,11.29,12.41,47.59359,-54.27349
